FW8922 Weather Reports


time (UTC)temp
C
wind
direction
speed
KPH
gust
KPH
rain 1hr
cm
rain 24hr
cm
rain mn
cm
humidity
%
barometer
mb
20260509000745 13 307 4.8 6.4 0.00 0.03 0.03 83 1012.2
20260509000242 13 283 0.0 8.0 0.00 0.03 0.03 81 1012.3
20260508235739 14 309 11.3 14.5 0.00 0.03 0.03 80 1012.4
20260508235236 14 337 4.8 17.7 0.05 0.03 0.03 78 1012.2
20260508234733 15 318 6.4 12.9 0.00 0.00 0.00 76 1012.1
20260508234229 15 36 0.0 8.0 0.05 0.00 0.00 74 1012.1
20260508233724 15 281 0.0 14.5 0.00 0.00 0.00 73 1012.3
20260508233221 15 131 8.0 8.0 0.00 0.00 0.00 72 1012.2
20260508232718 15 285 6.4 11.3 0.00 0.00 0.00 70 1012.3
20260508232214 15 331 0.0 19.3 0.00 0.00 0.00 70 1012.0
20260508231713 15 249 0.0 4.8 0.00 0.00 0.00 72 1012.1
20260508231209 15 180 0.0 0.0 0.00 0.00 0.00 72 1011.9
20260508230706 15 154 0.0 0.0 0.00 0.00 0.00 73 1011.5
20260508230202 15 154 0.0 0.0 0.00 0.00 0.00 72 1011.6
20260508225700 15 145 0.0 0.0 0.00 0.00 0.00 72 1011.7
20260508225156 15 145 0.0 0.0 0.00 0.00 0.00 70 1011.5
20260508224654 15 145 0.0 3.2 0.00 0.00 0.00 69 1011.4
20260508224151 16 144 4.8 4.8 0.00 0.00 0.00 69 1011.6
20260508223649 16 114 0.0 0.0 0.00 0.00 0.00 68 1011.7
20260508223146 15 140 0.0 4.8 0.00 0.00 0.00 68 1011.6
20260508222643 16 140 0.0 0.0 0.00 0.00 0.00 68 1011.3
20260508222140 16 140 0.0 0.0 0.00 0.00 0.00 67 1011.4
20260508221637 16 151 0.0 0.0 0.00 0.00 0.00 67 1011.7
20260508221132 16 151 0.0 3.2 0.00 0.00 0.00 67 1011.5
20260508220630 16 151 3.2 3.2 0.00 0.00 0.00 66 1011.7
20260508220126 16 106 0.0 0.0 0.00 0.00 0.00 66 1011.7
20260508215622 16 111 0.0 3.2 0.00 0.00 0.00 64 1011.5
20260508215119 16 114 0.0 0.0 0.00 0.00 0.00 63 1011.6
20260508214616 17 180 0.0 4.8 0.00 0.00 0.00 61 1011.7
20260508214113 17 111 3.2 4.8 0.00 0.00 0.00 61 1011.4
20260508213610 17 114 0.0 4.8 0.00 0.00 0.00 61 1011.5
20260508213106 17 145 3.2 4.8 0.00 0.00 0.00 60 1011.7
20260508212603 17 187 3.2 8.0 0.00 0.00 0.00 60 1011.6
20260508212059 17 126 0.0 4.8 0.00 0.00 0.00 60 1011.9
20260508211555 17 191 0.0 11.3 0.00 0.00 0.00 59 1012.2
20260508211051 17 156 4.8 6.4 0.00 0.00 0.00 59 1011.9
20260508210548 17 180 4.8 9.7 0.00 0.00 0.00 58 1011.7
20260508210045 17 157 4.8 8.0 0.00 0.00 0.00 58 1012.0
20260508205542 17 148 0.0 4.8 0.00 0.00 0.00 58 1012.0
20260508205039 17 160 0.0 8.0 0.00 0.00 0.00 57 1012.2
20260508204535 17 221 4.8 4.8 0.00 0.00 0.00 57 1012.3
20260508204031 17 180 3.2 11.3 0.00 0.00 0.00 56 1012.4
20260508203528 17 233 0.0 8.0 0.00 0.00 0.00 56 1012.2
20260508203024 17 180 4.8 9.7 0.00 0.00 0.00 55 1012.1
20260508202521 17 204 0.0 14.5 0.00 0.00 0.00 57 1012.3
20260508202017 17 35 0.0 6.4 0.00 0.00 0.00 57 1012.5
20260508201514 17 225 4.8 11.3 0.00 0.00 0.00 56 1012.4
20260508201011 17 244 6.4 17.7 0.00 0.00 0.00 55 1012.6
20260508200508 17 182 0.0 11.3 0.00 0.00 0.00 56 1012.6
20260508200004 17 127 8.0 14.5 0.00 0.00 0.00 55 1012.7
20260508195500 17 229 8.0 11.3 0.00 0.00 0.00 55 1012.9
20260508194956 18 226 9.7 14.5 0.00 0.00 0.00 54 1012.9
20260508194454 18 273 8.0 19.3 0.00 0.00 0.00 54 1012.9
20260508193951 18 210 8.0 14.5 0.00 0.00 0.00 54 1012.9
20260508193447 18 105 3.2 9.7 0.00 0.00 0.00 54 1013.0
20260508192944 18 141 9.7 12.9 0.00 0.00 0.00 54 1012.7
20260508192440 18 225 0.0 9.7 0.00 0.00 0.00 55 1013.0
20260508191937 19 210 4.8 16.1 0.00 0.00 0.00 55 1013.1
20260508191435 19 157 3.2 14.5 0.00 0.00 0.00 53 1013.1
20260508190931 18 285 4.8 11.3 0.00 0.00 0.00 53 1013.0
20260508190429 18 239 12.9 16.1 0.00 0.00 0.00 53 1012.9
20260508185925 18 190 4.8 17.7 0.00 0.00 0.00 54 1013.2
20260508185423 18 183 4.8 20.9 0.00 0.00 0.00 52 1013.3
20260508184920 18 187 6.4 19.3 0.00 0.00 0.00 52 1013.4
20260508184417 18 265 0.0 33.8 0.00 0.00 0.00 54 1013.3
20260508183913 19 207 11.3 20.9 0.00 0.00 0.00 52 1013.6
20260508183410 19 218 14.5 24.1 0.00 0.00 0.00 52 1013.3
20260508182905 20 105 0.0 12.9 0.00 0.00 0.00 58 1013.2
20260508182403 20 172 8.0 25.7 0.00 0.00 0.00 54 1013.3
20260508181858 20 58 0.0 14.5 0.00 0.00 0.00 55 1013.5
20260508181355 19 233 0.0 16.1 0.00 0.00 0.00 54 1013.4
20260508180852 20 33 9.7 20.9 0.00 0.00 0.00 54 1013.6
20260508180349 19 195 4.8 14.5 0.00 0.00 0.00 55 1013.8
20260508175845 18 169 9.7 14.5 0.00 0.00 0.00 56 1014.0
20260508175342 17 186 6.4 17.7 0.00 0.00 0.00 56 1013.8
20260508174840 17 8 0.0 14.5 0.00 0.00 0.00 57 1014.1
20260508174337 17 205 8.0 11.3 0.00 0.00 0.00 55 1014.3
20260508173833 18 207 9.7 16.1 0.00 0.00 0.00 55 1014.0
20260508173331 18 213 11.3 17.7 0.00 0.00 0.00 54 1014.2
20260508172826 18 258 8.0 20.9 0.00 0.00 0.00 55 1014.3
20260508172324 18 208 11.3 22.5 0.00 0.00 0.00 54 1014.3
20260508171820 18 78 8.0 14.5 0.00 0.00 0.00 54 1014.3
20260508171316 19 218 4.8 17.7 0.00 0.00 0.00 53 1014.3
20260508170813 18 206 8.0 20.9 0.00 0.00 0.00 54 1014.5
20260508170312 18 205 6.4 17.7 0.00 0.00 0.00 55 1014.8
20260508165808 18 222 8.0 20.9 0.00 0.00 0.00 53 1014.8
20260508165307 18 212 4.8 17.7 0.00 0.00 0.00 54 1014.7
20260508164801 19 208 14.5 22.5 0.00 0.00 0.00 53 1015.0
20260508164258 18 208 4.8 11.3 0.00 0.00 0.00 56 1015.1
20260508163756 18 183 11.3 14.5 0.00 0.00 0.00 57 1015.1
20260508163254 18 192 0.0 16.1 0.00 0.00 0.00 55 1015.2
20260508162749 18 247 9.7 14.5 0.00 0.00 0.00 55 1015.2
20260508162246 18 198 8.0 27.4 0.00 0.00 0.00 53 1015.5
20260508161743 18 258 0.0 14.5 0.00 0.00 0.00 57 1015.1
20260508161240 18 301 12.9 12.9 0.00 0.00 0.00 56 1015.2
20260508160738 18 206 8.0 17.7 0.00 0.00 0.00 54 1015.3
20260508160237 18 209 9.7 14.5 0.00 0.00 0.00 57 1015.1
20260508155732 17 182 16.1 24.1 0.00 0.00 0.00 55 1015.3
20260508155230 17 266 11.3 17.7 0.00 0.00 0.00 54 1015.3
20260508154726 18 200 8.0 16.1 0.00 0.00 0.00 55 1015.5
20260508154223 18 225 0.0 20.9 0.00 0.00 0.00 58 1015.3
20260508153720 18 34 12.9 16.1 0.00 0.00 0.00 55 1015.6
20260508153217 18 129 8.0 19.3 0.00 0.00 0.00 56 1015.7
20260508152714 18 192 4.8 16.1 0.00 0.00 0.00 56 1015.6
20260508152209 18 206 0.0 9.7 0.00 0.00 0.00 61 1015.6
20260508151706 17 194 4.8 14.5 0.00 0.00 0.00 59 1015.7
20260508151203 16 220 11.3 24.1 0.00 0.00 0.00 59 1015.8
20260508150700 16 220 11.3 12.9 0.00 0.00 0.00 61 1015.7
20260508150156 16 175 4.8 14.5 0.00 0.00 0.00 59 1015.9
20260508145652 16 203 8.0 12.9 0.00 0.00 0.00 60 1016.0
20260508145148 15 173 3.2 11.3 0.00 0.00 0.00 60 1015.9
20260508144646 15 192 11.3 22.5 0.00 0.00 0.00 60 1015.9
20260508144144 15 214 11.3 17.7 0.00 0.00 0.00 59 1016.1
20260508143641 15 270 0.0 11.3 0.00 0.00 0.00 60 1016.0
20260508143138 15 345 8.0 14.5 0.00 0.00 0.00 59 1016.0
20260508142634 15 201 6.4 14.5 0.00 0.00 0.00 60 1016.0
20260508142131 15 195 4.8 8.0 0.00 0.00 0.00 60 1016.0
20260508141628 15 241 4.8 19.3 0.00 0.00 0.00 57 1016.1
20260508141125 15 166 3.2 14.5 0.00 0.00 0.00 59 1016.2
20260508140622 15 216 14.5 16.1 0.00 0.00 0.00 58 1016.1
20260508140119 15 262 4.8 17.7 0.00 0.00 0.00 58 1016.2
20260508135614 15 129 11.3 11.3 0.00 0.00 0.00 58 1016.2
20260508135111 15 208 0.0 14.5 0.00 0.00 0.00 58 1016.4
20260508134608 15 246 6.4 17.7 0.00 0.00 0.00 57 1016.2
20260508134105 15 221 0.0 9.7 0.00 0.00 0.00 58 1016.3
20260508133601 15 278 3.2 11.3 0.00 0.00 0.00 60 1016.3
20260508133059 15 216 9.7 11.3 0.00 0.00 0.00 59 1016.3
20260508132556 14 219 16.1 22.5 0.00 0.00 0.00 59 1016.2
20260508132053 14 190 6.4 11.3 0.00 0.00 0.00 61 1016.2
20260508131548 13 216 14.5 14.5 0.00 0.00 0.00 61 1016.2
20260508131045 13 261 4.8 9.7 0.00 0.00 0.00 62 1016.4
20260508130542 13 0 0.0 14.5 0.00 0.00 0.00 63 1016.1
20260508130039 13 222 14.5 24.1 0.00 0.00 0.00 61 1016.1
20260508125534 13 212 8.0 8.0 0.00 0.00 0.00 63 1016.3
20260508125032 13 14 0.0 9.7 0.00 0.00 0.00 64 1016.2
20260508124530 12 212 3.2 12.9 0.00 0.00 0.00 63 1016.1
20260508124027 12 203 4.8 4.8 0.00 0.00 0.00 65 1016.2
20260508123526 12 244 8.0 12.9 0.00 0.00 0.00 64 1016.2
20260508123022 12 185 3.2 8.0 0.00 0.00 0.00 66 1016.3
20260508122519 11 199 4.8 9.7 0.00 0.00 0.00 66 1016.3
20260508122016 11 166 0.0 6.4 0.00 0.00 0.00 68 1016.2
20260508121514 11 228 4.8 8.0 0.00 0.00 0.00 69 1016.3
20260508121012 10 160 0.0 8.0 0.00 0.00 0.00 69 1016.1
20260508120509 10 165 0.0 4.8 0.00 0.00 0.00 70 1016.3
20260508120007 10 121 4.8 6.4 0.00 0.00 0.00 70 1016.1
20260508115504 10 221 0.0 8.0 0.00 0.00 0.00 71 1016.1
20260508115001 10 54 0.0 4.8 0.00 0.00 0.00 73 1016.0
20260508114458 9 192 0.0 3.2 0.00 0.00 0.00 73 1016.1
20260508113954 9 174 0.0 3.2 0.00 0.00 0.00 73 1015.7
20260508113452 9 206 0.0 3.2 0.00 0.00 0.00 73 1016.0
20260508112949 9 240 0.0 11.3 0.00 0.00 0.00 72 1015.7
20260508112445 9 172 4.8 14.5 0.00 0.00 0.00 73 1015.8
20260508111942 8 198 0.0 8.0 0.00 0.00 0.00 73 1015.7
20260508111439 9 230 6.4 8.0 0.00 0.00 0.00 73 1015.6
20260508110936 8 194 4.8 6.4 0.00 0.00 0.00 73 1015.5
20260508110434 8 120 0.0 9.7 0.00 0.00 0.00 74 1015.5
20260508105934 8 186 0.0 6.4 0.00 0.00 0.00 74 1015.8
20260508105430 8 180 0.0 4.8 0.00 0.00 0.00 73 1015.7
20260508104928 8 173 0.0 8.0 0.00 0.00 0.00 73 1015.6
20260508104425 8 245 4.8 8.0 0.00 0.00 0.00 72 1015.5
20260508103922 8 154 0.0 9.7 0.00 0.00 0.00 72 1015.5
20260508103419 8 215 0.0 4.8 0.00 0.00 0.00 72 1015.6
20260508102915 9 139 0.0 4.8 0.00 0.00 0.00 72 1015.6
20260508102414 8 161 0.0 4.8 0.00 0.00 0.00 72 1015.5
20260508101911 8 198 3.2 6.4 0.00 0.00 0.00 72 1015.3
20260508101408 8 187 0.0 4.8 0.00 0.00 0.00 72 1015.3
20260508100905 8 132 0.0 9.7 0.00 0.00 0.00 72 1015.6
20260508100405 8 206 0.0 9.7 0.00 0.00 0.00 72 1015.5
20260508095859 8 240 0.0 4.8 0.00 0.00 0.00 72 1015.5
20260508095358 8 123 0.0 9.7 0.00 0.00 0.00 72 1015.6
20260508094854 8 210 4.8 9.7 0.00 0.00 0.00 72 1015.6
20260508094351 8 196 4.8 11.3 0.00 0.00 0.00 72 1015.3
20260508093848 8 159 0.0 4.8 0.00 0.00 0.00 73 1015.2
20260508093345 8 180 4.8 4.8 0.00 0.00 0.00 73 1015.6
20260508092843 8 74 0.0 8.0 0.00 0.00 0.00 73 1015.6
20260508092341 8 209 0.0 4.8 0.00 0.00 0.00 73 1015.6
20260508091838 8 240 0.0 11.3 0.00 0.00 0.00 74 1015.8
20260508091335 8 191 3.2 4.8 0.00 0.00 0.00 74 1015.6
20260508090833 8 166 3.2 8.0 0.00 0.00 0.00 74 1015.5
20260508090331 7 98 0.0 8.0 0.00 0.00 0.00 74 1015.7
20260508085826 7 209 4.8 4.8 0.00 0.00 0.00 74 1015.3
20260508085323 7 216 4.8 4.8 0.00 0.00 0.00 74 1015.8
20260508084820 7 211 9.7 9.7 0.00 0.00 0.00 74 1015.7
20260508084317 7 175 4.8 9.7 0.00 0.00 0.00 75 1015.7
20260508083814 7 145 0.0 4.8 0.00 0.00 0.00 74 1015.8
20260508083312 7 239 0.0 8.0 0.00 0.00 0.00 75 1015.8
20260508082811 7 145 3.2 4.8 0.00 0.00 0.00 75 1015.5
20260508082309 7 169 4.8 8.0 0.00 0.00 0.00 75 1015.7
20260508081806 7 120 0.0 11.3 0.00 0.00 0.00 75 1015.8
20260508081303 7 120 0.0 6.4 0.00 0.00 0.00 74 1015.8
20260508080800 7 174 0.0 4.8 0.00 0.00 0.00 74 1015.5
20260508080258 7 66 0.0 4.8 0.00 0.00 0.00 74 1015.6
20260508075754 7 187 0.0 3.2 0.00 0.00 0.00 74 1015.6
20260508075251 7 240 3.2 4.8 0.00 0.00 0.00 74 1015.6
20260508074749 7 90 0.0 4.8 0.00 0.00 0.00 73 1015.5
20260508074246 8 151 0.0 4.8 0.00 0.00 0.00 72 1015.7
20260508073743 8 114 0.0 6.4 0.00 0.00 0.00 72 1015.6
20260508073241 8 237 0.0 9.7 0.00 0.00 0.00 72 1015.5
20260508072737 8 157 3.2 8.0 0.00 0.00 0.00 72 1015.7
20260508072234 8 96 3.2 6.4 0.00 0.00 0.00 71 1015.6
20260508071731 8 173 3.2 6.4 0.00 0.00 0.00 71 1015.7
20260508071229 8 111 3.2 4.8 0.00 0.00 0.00 70 1015.6
20260508070726 8 66 0.0 6.4 0.00 0.00 0.00 69 1015.9
20260508070225 8 160 3.2 9.7 0.00 0.00 0.00 69 1016.0
20260508065722 8 289 4.8 11.3 0.00 0.00 0.00 69 1016.0
20260508065220 8 203 0.0 11.3 0.00 0.00 0.00 69 1016.0
20260508064717 8 194 3.2 8.0 0.00 0.00 0.00 69 1015.7
20260508064215 8 23 0.0 6.4 0.00 0.00 0.00 69 1015.8
20260508063713 8 277 8.0 9.7 0.00 0.00 0.00 68 1016.1
20260508063210 8 204 0.0 8.0 0.00 0.00 0.00 68 1016.1
20260508062707 9 180 0.0 9.7 0.00 0.00 0.00 68 1016.1
20260508062204 9 194 6.4 11.3 0.00 0.00 0.00 68 1016.0
20260508061701 8 129 4.8 6.4 0.00 0.00 0.00 68 1016.2
20260508061159 8 212 6.4 9.7 0.00 0.00 0.00 68 1016.0
20260508060655 8 206 0.0 4.8 0.00 0.00 0.00 67 1016.1
20260508060153 9 164 4.8 8.0 0.00 0.00 0.00 67 1016.1
20260508055648 9 257 3.2 9.7 0.00 0.00 0.00 67 1016.1
20260508055145 9 180 3.2 8.0 0.00 0.00 0.00 67 1016.1
20260508054641 9 154 0.0 4.8 0.00 0.00 0.00 66 1016.2
20260508054139 9 234 3.2 11.3 0.00 0.00 0.00 66 1016.3
20260508053636 9 199 4.8 9.7 0.00 0.00 0.00 66 1016.0
20260508053134 10 199 0.0 8.0 0.00 0.00 0.00 65 1016.1
20260508052631 10 241 0.0 14.5 0.00 0.00 0.00 65 1016.0
20260508052128 10 218 8.0 11.3 0.00 0.00 0.00 65 1016.4
20260508051624 9 240 0.0 6.4 0.00 0.00 0.00 66 1016.0
20260508051119 9 135 4.8 11.3 0.00 0.00 0.00 66 1016.2
20260508050615 10 180 3.2 14.5 0.00 0.00 0.00 66 1016.1
20260508050114 9 254 4.8 8.0 0.00 0.00 0.00 66 1016.2
20260508045609 9 239 8.0 9.7 0.00 0.00 0.00 66 1016.1
20260508045107 9 195 0.0 9.7 0.00 0.00 0.00 66 1016.2
20260508044604 9 172 0.0 8.0 0.00 0.00 0.00 66 1016.1
20260508044100 10 239 0.0 9.7 0.00 0.00 0.00 66 1016.1
20260508043557 10 200 3.2 4.8 0.00 0.00 0.00 66 1016.2
20260508043055 10 198 4.8 12.9 0.00 0.00 0.00 66 1016.2
20260508042551 10 184 0.0 6.4 0.00 0.00 0.00 66 1016.0
20260508042049 10 216 0.0 8.0 0.00 0.00 0.00 65 1016.1
20260508041545 10 241 4.8 9.7 0.00 0.00 0.00 65 1016.3
20260508041041 10 90 0.0 6.4 0.00 0.00 0.00 66 1016.1
20260508040538 10 185 3.2 6.4 0.00 0.00 0.00 66 1016.0
20260508040036 10 262 0.0 4.8 0.00 0.00 0.00 65 1015.9
20260508035532 10 180 4.8 4.8 0.00 0.00 0.00 65 1016.1
20260508035030 10 203 0.0 6.4 0.00 0.00 0.00 65 1016.1
20260508034527 10 174 0.0 4.8 0.00 0.00 0.00 65 1016.3
20260508034023 10 114 0.0 4.8 0.00 0.00 0.00 66 1016.2
20260508033521 10 172 0.0 4.8 0.00 0.00 0.00 67 1016.1
20260508033019 10 186 0.0 0.0 0.00 0.00 0.00 68 1016.1
20260508032516 10 173 0.0 0.0 0.00 0.00 0.00 68 1016.1
20260508032013 10 106 0.0 3.2 0.00 0.00 0.00 68 1016.1
20260508031510 10 151 0.0 0.0 0.00 0.00 0.00 68 1016.1
20260508031005 10 131 4.8 4.8 0.00 0.00 0.00 68 1016.1
20260508030503 10 220 0.0 0.0 0.00 0.00 0.00 68 1016.3
20260508030001 10 165 0.0 3.2 0.00 0.00 0.00 68 1016.2
20260508025456 10 103 0.0 0.0 0.00 0.00 0.00 67 1016.3
20260508024954 10 103 0.0 0.0 0.00 0.00 0.00 68 1016.2
20260508024449 10 103 0.0 0.0 0.00 0.00 0.00 67 1016.3
20260508023946 10 103 0.0 0.0 0.00 0.00 0.00 67 1016.2
20260508023443 10 246 0.0 0.0 0.00 0.00 0.00 68 1016.2
20260508022941 10 246 0.0 0.0 0.00 0.00 0.00 69 1015.9
20260508022436 10 157 0.0 3.2 0.00 0.00 0.00 70 1016.0
20260508021933 10 98 0.0 0.0 0.00 0.00 0.00 70 1015.9
20260508021430 9 98 0.0 4.8 0.00 0.00 0.00 71 1016.1
20260508020925 9 99 0.0 0.0 0.00 0.00 0.00 71 1016.1
20260508020423 9 99 0.0 0.0 0.00 0.00 0.00 70 1016.3
20260508015920 9 99 0.0 0.0 0.00 0.00 0.00 68 1016.0
20260508015418 9 99 0.0 0.0 0.00 0.00 0.00 68 1016.0
20260508014914 10 99 0.0 0.0 0.00 0.00 0.00 67 1016.0
20260508014411 10 99 0.0 0.0 0.00 0.00 0.00 66 1015.7
20260508013906 10 99 0.0 0.0 0.00 0.00 0.00 65 1015.8
20260508013403 10 99 0.0 0.0 0.00 0.00 0.00 64 1015.9
20260508012900 11 106 0.0 0.0 0.00 0.00 0.00 64 1016.0
20260508012357 11 106 0.0 0.0 0.00 0.00 0.00 63 1016.1
20260508011855 11 106 0.0 0.0 0.00 0.00 0.00 63 1015.9
20260508011353 10 106 0.0 0.0 0.00 0.00 0.00 64 1016.0
20260508010849 10 106 0.0 3.2 0.00 0.00 0.00 63 1015.8
20260508010347 10 140 0.0 4.8 0.00 0.00 0.00 62 1015.8
20260508005844 10 99 0.0 0.0 0.00 0.00 0.00 60 1016.1
20260508005340 11 99 0.0 0.0 0.00 0.00 0.00 59 1015.8
20260508004837 11 74 0.0 0.0 0.00 0.00 0.00 58 1016.0
20260508004333 11 74 0.0 0.0 0.00 0.00 0.00 58 1016.3
20260508003830 11 74 0.0 0.0 0.00 0.00 0.00 58 1016.0
20260508003327 11 74 0.0 0.0 0.00 0.00 0.00 58 1015.8
20260508002824 11 74 0.0 0.0 0.00 0.00 0.00 56 1015.9
20260508002321 11 74 0.0 0.0 0.00 0.00 0.00 56 1016.0
20260508001817 11 74 0.0 0.0 0.00 0.00 0.00 54 1015.7
20260508001313 12 74 0.0 0.0 0.00 0.00 0.00 54 1016.0